Back to catalog

STARLINK-36096

AliveCommunicationsVLEO
NORAD 66949·PAYLOAD·🇺🇸 United States

Launched Dec 7, 2025 from Vandenberg Space Force Base

Loading…

Next Passes (next 24 hours)

TLE

FreshSource: CelesTrak SupGP

Epoch: Sep 14, 2026, 21:17 UTC

1 66949C 25286AA  26257.88729167  .00017695  00000+0  52258-3 0  2576
2 66949  53.1576 195.6391 0001210  92.8923 145.4801 15.34395277    14

Track STARLINK-36096 in real time with AllMySat

Download on the App Store